User: anonymous   Login
Location: Caribou
(46.8667°N, 68.0167°W)
Time: 19:38:07
(UTC-04:00)
Language:

SL-08 RB Rocket - Orbit

View from above orbital plane
View from above orbital plane
View from above satellite
View from above satellite

Ground track
Ground track

The orbit data is extracted from the following two-line orbital elements,

1 26387U 00033D   17228.68810868  .00000048  00000-0  16629-4 0  9997
2 26387  97.9659 291.4114 0027418 142.4887  15.6263 14.68298123916756
Epoch (UTC): 16 August 2017 16:30:52
Eccentricity: 0.0027418
inclination: 97.9659°
perigee height: 647 km
apogee height: 686 km
right ascension of ascending node: 291.4114°
argument of perigee: 142.4887°
revolutions per day: 14.68298123
mean anomaly at epoch: 15.6263°
orbit number at epoch: 91675

The dashed part of the orbit path shows where the satellite is in the earth's shadow,  

DLR